Weather History for Debrecen, Hungary

Change the Weather History Date:

Friday, February 15, 2013

  Actual Average Record
Temperature  
Mean Temperature 39 °F -  
Max Temperature 47 °F 45 °F - ()
Min Temperature 32 °F 30 °F - ()
Degree Days  
Heating Degree Days 26    
Moisture  
Dew Point 36 °F    
Average Humidity 85    
Maximum Humidity 100    
Minimum Humidity 67    
Precipitation  
Precipitation 0.00 in 0.04 in - ()
Sea Level Pressure  
Sea Level Pressure 30.05 in    
Wind  
Wind Speed 3 mph ()    
Max Wind Speed 7 mph    
Max Gust Speed -    
Visibility 4.3 miles    
Events      
T = Trace of Precipitation, MM = Missing Value Source: Averaged Metar Reports

Daily Weather History Graph

Daily Weather History Graph

Search for Another Location

Airport:

Trip Planner

Search our weather history database for the weather conditions in past years. The results will help you decide how hot, cold, wet, or windy it might be!

Date:

Astronomy

Feb. 15, 2013 Rise Set
Actual Time 6:38 AM CET 4:57 PM CET
Civil Twilight 6:07 AM CET 5:28 PM CET
Nautical Twilight 5:31 AM CET 6:04 PM CET
Astronomical Twilight 4:55 AM CET 6:40 PM CET
Moon 8:38 AM CET (2/15) 11:08 PM CET (2/15)
Length of Visible Light 11h 21m
Length of Day
10h 18m
Waxing Crescent, 28% of the Moon is Illuminated
Feb 15
Waxing Crescent
Feb 17
First Quarter
Feb 25
Full
Mar 4
Last Quarter
Mar 11
New

Hourly Weather History & Observations

Time (CET) Temp. Windchill Dew Point Humidity Pressure Visibility Wind Dir Wind Speed Gust Speed Precip Events Conditions
1:00 AM 38 °F - 34 °F 81% 30.08 in - NNE 2.2 mph - -  
5:15 AM 33.8 °F 30.8 °F 32.0 °F 93% 30.04 in 5.0 mi ENE 3.5 mph - N/A   Mostly Cloudy
5:45 AM 32.0 °F - 32.0 °F 100% 30.04 in 5.0 mi Calm Calm - N/A   Mostly Cloudy
6:00 AM - - - N/A% - 1.9 mi NE 5.8 mph - N/A   Mostly Cloudy
6:15 AM 32.0 °F - 32.0 °F 100% 30.04 in 3.7 mi NNE 2.3 mph - N/A   Mostly Cloudy
6:45 AM 32.0 °F - 32.0 °F 100% 30.04 in 3.7 mi NE 2.3 mph - N/A   Mostly Cloudy
7:00 AM 32 °F - 31 °F 96% 30.05 in 4 mi NE 2.2 mph - -   Partly Cloudy
7:15 AM 32.0 °F - 32.0 °F 100% 30.04 in 3.7 mi Calm Calm - N/A   Mostly Cloudy
7:45 AM 32.0 °F - 32.0 °F 100% 30.04 in 3.7 mi NNW 1.2 mph - N/A   Mostly Cloudy
8:14 AM 33.8 °F - 33.8 °F 100% 30.06 in - North 1.2 mph - N/A   Mostly Cloudy
8:15 AM 33.8 °F - 33.8 °F 100% 30.04 in - North 1.2 mph - N/A   Mostly Cloudy
8:45 AM 35.6 °F - 35.6 °F 100% 30.04 in - NE 2.3 mph - N/A   Mostly Cloudy
9:00 AM - - - N/A% - 2.5 mi North 4.6 mph - N/A   Mist
9:15 AM 37.4 °F 34.9 °F 35.6 °F 93% 30.04 in 3.1 mi ENE 3.5 mph - N/A   Mostly Cloudy
9:43 AM 39.2 °F - 35.6 °F 87% 30.06 in 3.7 mi Calm Calm - N/A   Mostly Cloudy
9:45 AM 39.2 °F - 35.6 °F 87% 30.04 in 3.7 mi Calm Calm - N/A   Mostly Cloudy
10:15 AM 41.0 °F 39.0 °F 35.6 °F 81% 30.04 in 3.7 mi NE 3.5 mph - N/A   Mostly Cloudy
10:45 AM 42.8 °F 41.1 °F 35.6 °F 76% 30.06 in 4.3 mi ENE 3.5 mph - N/A   Mostly Cloudy
11:15 AM 44.6 °F - 37.4 °F 76% 30.06 in 4.3 mi NE 1.2 mph - N/A   Mostly Cloudy
11:45 AM 44.6 °F - 37.4 °F 76% 30.04 in 5.0 mi West 2.3 mph - N/A   Mostly Cloudy
12:00 PM - - - N/A% - 1.9 mi NE 4.6 mph - N/A   Mist
12:15 PM 46.4 °F 45.2 °F 37.4 °F 71% 30.04 in 5.0 mi WSW 3.5 mph - N/A   Mostly Cloudy
12:45 PM 46.4 °F 44.3 °F 39.2 °F 76% 30.04 in 5.0 mi WSW 4.6 mph - N/A   Mostly Cloudy
1:00 PM 46 °F - 39 °F 67% 30.05 in 5 mi WSW 4.5 mph - -   Partly Cloudy
1:15 PM 46.4 °F 44.3 °F 39.2 °F 76% 30.04 in 5.0 mi West 4.6 mph - N/A   Mostly Cloudy
1:45 PM 46.4 °F 44.3 °F 39.2 °F 76% 30.04 in 5.0 mi WNW 4.6 mph - N/A   Mostly Cloudy
2:15 PM 46.4 °F 44.3 °F 39.2 °F 76% 30.04 in 5.0 mi West 4.6 mph - N/A   Mostly Cloudy
2:45 PM 46.4 °F 42.9 °F 39.2 °F 76% 30.04 in 5.0 mi West 6.9 mph - N/A   Mostly Cloudy
3:15 PM 46.4 °F 43.5 °F 39.2 °F 76% 30.04 in 5.0 mi WNW 5.8 mph - N/A   Mostly Cloudy
3:45 PM 46.4 °F 43.5 °F 39.2 °F 76% 30.04 in 6.2 mi WNW 5.8 mph - N/A   Mostly Cloudy
4:15 PM 46.4 °F 42.9 °F 41.0 °F 81% 30.04 in 6.2 mi WNW 6.9 mph - N/A   Mostly Cloudy
4:45 PM 44.6 °F 43.1 °F 39.2 °F 81% 30.04 in - NW 3.5 mph - N/A   Clear
5:00 PM - - - N/A% - - North - - N/A   Unknown
7:00 PM 43 °F - 38 °F 78% 30.07 in - NNW 4.5 mph - -